Location: Alma
(38.7220°N, 88.9090°W)
Time: 18:56:05
(UTC-06:00)

Vanguard 2 - Pass Details

Date: 14 November 2019
Orbit: 553 x 2938 km, 32.9° (Epoch: 10 December)

Event Time Altitude Azimuth Distance (km) Brightness Sun altitude
Rises 06:58:57 0° 201° (SSW) 5,508 12.0 3.1°
Reaches altitude 10° 07:05:48 10° 177° (S) 3,868 11.6 4.3°
Maximum altitude 07:09:25 13° 155° (SSE) 3,300 11.7 4.9°
Drops below altitude 10° 07:12:31 10° 132° (SE) 3,177 12.7 5.5°
Sets 07:16:50 0° 104° (ESE) 3,681 12.9 6.2°
